Location: Bacea
(45.9500°N, 22.6667°E)
Time: 00:53:31
(UTC+00:00)

Cosmos 389 Rocket - Pass Details

Date: 16 October 2021
Orbit: 439 x 468 km, 81.1° (Epoch: 02 December)

Event Time Altitude Azimuth Distance (km) Brightness Sun altitude
Rises 17:20:05 0° 210° (SSW) 2,414 6.4 -17.9°
Reaches altitude 10° 17:22:15 10° 220° (SW) 1,550 5.6 -18.3°
Maximum altitude 17:25:20 32° 286° (WNW) 774 4.2 -18.8°
Drops below altitude 10° 17:28:27 10° 352° (N) 1,568 5.3 -19.3°
Sets 17:30:40 0° 3° (N) 2,447 6.2 -19.7°
